Time,TemperatureF,DewpointF,PressureIn,WindDirection,WindDirectionDegrees,WindSpeedMPH,WindSpeedGustMPH,Humidity,HourlyPrecipIn,Conditions,Clouds,dailyrainin,SoftwareType,DateUTC
2013-03-18 00:00:00,27.9,21.6,30.09,ESE,112,4.6,5.1,77,0.00,OVC,OVC,0.00,WeatherDisplay:10.37,2013-03-18 04:00:00,
2013-03-18 00:01:00,27.9,21.6,30.09,ESE,112,4.6,5.1,77,0.00,OVC,OVC,0.00,WeatherDisplay:10.37,2013-03-18 04:01:00,
2013-03-18 00:06:00,28.0,21.8,30.08,ESE,112,3.8,3.8,77,0.00,OVC,OVC,0.00,WeatherDisplay:10.37,2013-03-18 04:06:00,
2013-03-18 00:11:00,28.0,21.8,30.08,ESE,112,3.5,3.9,77,0.00,OVC,OVC,0.00,WeatherDisplay:10.37,2013-03-18 04:11:00,
2013-03-18 00:16:00,27.9,21.6,30.08,ESE,112,3.8,3.8,77,0.00,OVC,OVC,0.00,WeatherDisplay:10.37,2013-03-18 04:16:00,
2013-03-18 00:21:00,27.9,21.6,30.08,ESE,112,3.5,3.8,77,0.00,OVC,OVC,0.00,WeatherDisplay:10.37,2013-03-18 04:21:00,
2013-03-18 00:27:00,28.0,21.8,30.08,ESE,112,4.7,4.7,77,0.00,OVC,OVC,0.00,WeatherDisplay:10.37,2013-03-18 04:27:00,
2013-03-18 00:32:00,28.0,22.1,30.08,ESE,112,4.6,4.6,78,0.00,OVC,OVC,0.00,WeatherDisplay:10.37,2013-03-18 04:32:00,
2013-03-18 00:37:00,28.0,22.1,30.08,ESE,112,5.8,5.8,78,0.00,OVC,OVC,0.00,WeatherDisplay:10.37,2013-03-18 04:37:00,
2013-03-18 00:42:00,28.0,22.1,30.08,ESE,112,3.5,4.0,78,0.00,OVC,OVC,0.00,WeatherDisplay:10.37,2013-03-18 04:42:00,
2013-03-18 00:47:00,28.0,22.1,30.08,ESE,112,3.6,3.6,78,0.00,OVC,OVC,0.00,WeatherDisplay:10.37,2013-03-18 04:47:00,
2013-03-18 00:52:00,28.2,22.2,30.08,ESE,112,5.8,5.8,78,0.00,OVC,OVC,0.00,WeatherDisplay:10.37,2013-03-18 04:52:00,
2013-03-18 00:57:00,28.2,22.2,30.06,SE,135,6.9,6.9,78,0.00,OVC,OVC,0.00,WeatherDisplay:10.37,2013-03-18 04:57:00,
2013-03-18 01:02:00,28.2,22.2,30.06,ESE,112,6.9,6.9,78,0.00,OVC,OVC,0.00,WeatherDisplay:10.37,2013-03-18 05:02:00,
2013-03-18 01:07:00,28.2,22.2,30.06,ESE,112,6.9,6.9,78,0.00,OVC,OVC,0.00,WeatherDisplay:10.37,2013-03-18 05:07:00,
2013-03-18 01:12:00,28.6,22.6,30.05,ESE,112,6.9,6.9,78,0.00,OVC,OVC,0.00,WeatherDisplay:10.37,2013-03-18 05:12:00,
2013-03-18 01:17:00,28.6,22.6,30.05,ESE,112,4.6,6.7,78,0.00,OVC,OVC,0.00,WeatherDisplay:10.37,2013-03-18 05:17:00,
2013-03-18 01:22:00,28.6,22.6,30.05,ESE,112,5.8,5.8,78,0.00,OVC,OVC,0.00,WeatherDisplay:10.37,2013-03-18 05:22:00,
2013-03-18 01:27:00,28.6,22.6,30.05,ESE,112,4.6,5.3,78,0.00,OVC,OVC,0.00,WeatherDisplay:10.37,2013-03-18 05:27:00,
2013-03-18 01:32:00,28.6,22.3,30.05,ESE,112,5.8,5.8,77,0.00,OVC,OVC,0.00,WeatherDisplay:10.37,2013-03-18 05:32:00,
2013-03-18 01:37:00,28.6,22.3,30.05,ESE,112,3.5,4.0,77,0.00,OVC,OVC,0.00,WeatherDisplay:10.37,2013-03-18 05:37:00,
2013-03-18 01:42:00,28.8,22.8,30.04,ESE,112,6.9,6.9,78,0.00,OVC,OVC,0.00,WeatherDisplay:10.37,2013-03-18 05:42:00,
2013-03-18 01:48:00,28.8,22.8,30.04,ESE,112,3.5,3.5,78,0.00,OVC,OVC,0.00,WeatherDisplay:10.37,2013-03-18 05:48:00,
2013-03-18 01:53:00,28.8,22.8,30.04,ESE,112,4.6,4.7,78,0.00,OVC,OVC,0.00,WeatherDisplay:10.37,2013-03-18 05:53:00,
2013-03-18 01:58:00,28.8,22.8,30.04,East,90,5.1,5.1,78,0.00,OVC,OVC,0.00,WeatherDisplay:10.37,2013-03-18 05:58:00,
2013-03-18 02:03:00,28.8,22.8,30.04,ESE,112,4.6,4.6,78,0.00,OVC,OVC,0.00,WeatherDisplay:10.37,2013-03-18 06:03:00,
2013-03-18 02:08:00,28.8,22.8,30.04,ESE,112,4.6,4.6,78,0.00,OVC,OVC,0.00,WeatherDisplay:10.37,2013-03-18 06:08:00,
2013-03-18 02:13:00,28.9,23.2,30.03,ESE,112,5.8,5.8,79,0.00,OVC,OVC,0.00,WeatherDisplay:10.37,2013-03-18 06:13:00,
2013-03-18 02:18:00,28.9,23.2,30.03,ESE,112,4.6,4.6,79,0.00,OVC,OVC,0.00,WeatherDisplay:10.37,2013-03-18 06:18:00,
2013-03-18 02:23:00,28.9,23.2,30.03,ESE,112,5.8,5.8,79,0.00,OVC,OVC,0.00,WeatherDisplay:10.37,2013-03-18 06:23:00,
2013-03-18 02:28:00,28.9,23.2,30.04,ESE,112,5.8,5.8,79,0.00,OVC,OVC,0.00,WeatherDisplay:10.37,2013-03-18 06:28:00,
2013-03-18 02:33:00,29.1,23.4,30.03,ESE,112,4.6,4.7,79,0.00,OVC,OVC,0.00,WeatherDisplay:10.37,2013-03-18 06:33:00,
2013-03-18 02:38:00,29.1,23.4,30.03,ESE,112,6.9,6.9,79,0.00,OVC,OVC,0.00,WeatherDisplay:10.37,2013-03-18 06:38:00,
2013-03-18 02:43:00,29.1,23.4,30.03,ESE,112,5.8,5.8,79,0.00,OVC,OVC,0.00,WeatherDisplay:10.37,2013-03-18 06:43:00,
2013-03-18 02:48:00,29.1,23.4,30.03,SE,135,4.6,4.6,79,0.00,OVC,OVC,0.00,WeatherDisplay:10.37,2013-03-18 06:48:00,
2013-03-18 02:53:00,29.1,23.4,30.03,ESE,112,4.6,5.6,79,0.00,OVC,OVC,0.00,WeatherDisplay:10.37,2013-03-18 06:53:00,
2013-03-18 02:58:00,29.3,23.6,30.02,ESE,112,3.5,4.3,79,0.00,OVC,OVC,0.00,WeatherDisplay:10.37,2013-03-18 06:58:00,
2013-03-18 03:03:00,29.3,23.6,30.02,ESE,112,4.6,4.6,79,0.00,OVC,OVC,0.00,WeatherDisplay:10.37,2013-03-18 07:03:00,
2013-03-18 03:08:00,29.3,23.6,30.02,ESE,112,4.6,4.6,79,0.00,OVC,OVC,0.00,WeatherDisplay:10.37,2013-03-18 07:08:00,
2013-03-18 03:13:00,29.3,23.6,30.02,ESE,112,4.6,4.6,79,0.00,OVC,OVC,0.00,WeatherDisplay:10.37,2013-03-18 07:13:00,
2013-03-18 03:18:00,29.5,23.8,30.01,ESE,112,4.6,5.0,79,0.00,OVC,OVC,0.00,WeatherDisplay:10.37,2013-03-18 07:18:00,
2013-03-18 03:23:00,29.5,23.8,30.01,ESE,112,4.6,5.0,79,0.00,OVC,OVC,0.00,WeatherDisplay:10.37,2013-03-18 07:23:00,
2013-03-18 03:28:00,29.5,23.8,30.01,SE,135,5.8,5.8,79,0.00,OVC,OVC,0.00,WeatherDisplay:10.37,2013-03-18 07:28:00,
2013-03-18 03:33:00,29.5,23.8,30.01,ESE,112,4.6,4.9,79,0.00,OVC,OVC,0.00,WeatherDisplay:10.37,2013-03-18 07:33:00,
2013-03-18 03:38:00,29.8,24.1,30.01,East,90,2.3,5.0,79,0.00,OVC,OVC,0.00,WeatherDisplay:10.37,2013-03-18 07:38:00,
2013-03-18 03:43:00,29.8,24.1,30.01,ESE,112,5.8,5.8,79,0.00,OVC,OVC,0.00,WeatherDisplay:10.37,2013-03-18 07:43:00,
2013-03-18 03:48:00,29.8,24.1,30.01,ESE,112,5.8,5.8,79,0.00,OVC,OVC,0.00,WeatherDisplay:10.37,2013-03-18 07:48:00,
2013-03-18 03:53:00,30.0,24.3,29.98,ESE,112,6.9,6.9,79,0.00,OVC,OVC,0.00,WeatherDisplay:10.37,2013-03-18 07:53:00,
2013-03-18 03:58:00,30.0,24.3,29.98,ESE,112,5.8,5.8,79,0.00,OVC,OVC,0.00,WeatherDisplay:10.37,2013-03-18 07:58:00,
2013-03-18 04:03:00,30.0,24.3,29.98,ESE,112,5.8,5.8,79,0.00,OVC,OVC,0.00,WeatherDisplay:10.37,2013-03-18 08:03:00,
2013-03-18 04:08:00,30.0,24.3,29.98,ESE,112,5.8,5.8,79,0.00,OVC,OVC,0.00,WeatherDisplay:10.37,2013-03-18 08:08:00,
2013-03-18 04:13:00,30.0,24.3,29.98,ESE,112,5.8,5.8,79,0.00,OVC,OVC,0.00,WeatherDisplay:10.37,2013-03-18 08:13:00,
2013-03-18 04:18:00,30.2,24.5,29.95,ESE,112,3.5,5.1,79,0.00,OVC,OVC,0.00,WeatherDisplay:10.37,2013-03-18 08:18:00,
2013-03-18 04:23:00,30.2,24.5,29.95,ESE,112,5.8,6.3,79,0.00,OVC,OVC,0.00,WeatherDisplay:10.37,2013-03-18 08:23:00,
2013-03-18 04:28:00,30.2,24.5,29.95,East,90,5.8,5.9,79,0.00,OVC,OVC,0.00,WeatherDisplay:10.37,2013-03-18 08:28:00,
2013-03-18 04:33:00,30.4,24.6,29.95,ESE,112,5.8,5.8,79,0.00,OVC,OVC,0.00,WeatherDisplay:10.37,2013-03-18 08:33:00,
2013-03-18 04:38:00,30.4,24.6,29.93,ESE,112,5.8,5.8,79,0.00,OVC,OVC,0.00,WeatherDisplay:10.37,2013-03-18 08:38:00,
2013-03-18 04:43:00,30.4,24.6,29.93,ESE,112,7.2,7.2,79,0.00,OVC,OVC,0.00,WeatherDisplay:10.37,2013-03-18 08:43:00,
2013-03-18 04:48:00,30.4,24.6,29.93,ESE,112,5.8,5.8,79,0.00,OVC,OVC,0.00,WeatherDisplay:10.37,2013-03-18 08:48:00,
2013-03-18 04:53:00,30.4,24.6,29.93,ESE,112,5.8,5.8,79,0.00,OVC,OVC,0.00,WeatherDisplay:10.37,2013-03-18 08:53:00,
2013-03-18 04:58:00,30.4,24.6,29.93,ESE,112,4.6,4.6,79,0.00,OVC,OVC,0.00,WeatherDisplay:10.37,2013-03-18 08:58:00,
2013-03-18 05:03:00,30.4,24.6,29.93,ESE,112,3.5,4.7,79,0.00,OVC,OVC,0.00,WeatherDisplay:10.37,2013-03-18 09:03:00,
2013-03-18 05:08:00,30.4,24.6,29.93,ESE,112,3.5,4.7,79,0.00,OVC,OVC,0.00,WeatherDisplay:10.37,2013-03-18 09:08:00,
2013-03-18 05:13:00,30.4,24.6,29.93,ESE,112,3.5,4.7,79,0.00,OVC,OVC,0.00,WeatherDisplay:10.37,2013-03-18 09:13:00,
2013-03-18 05:18:00,30.7,25.0,29.93,ESE,112,6.9,6.9,79,0.00,OVC,OVC,0.00,WeatherDisplay:10.37,2013-03-18 09:18:00,
2013-03-18 05:23:00,30.7,25.0,29.93,ESE,112,5.1,5.1,79,0.00,OVC,OVC,0.00,WeatherDisplay:10.37,2013-03-18 09:23:00,
2013-03-18 05:28:00,30.7,25.0,29.91,SE,135,6.9,7.0,79,0.00,OVC,OVC,0.00,WeatherDisplay:10.37,2013-03-18 09:28:00,
2013-03-18 05:33:00,30.7,25.0,29.91,ESE,112,4.6,6.0,79,0.00,OVC,OVC,0.00,WeatherDisplay:10.37,2013-03-18 09:33:00,
2013-03-18 05:38:00,30.7,25.0,29.91,ESE,112,4.6,6.0,79,0.00,OVC,OVC,0.00,WeatherDisplay:10.37,2013-03-18 09:38:00,
2013-03-18 05:43:00,30.9,25.2,29.90,ESE,112,5.1,5.1,79,0.00,OVC,OVC,0.00,WeatherDisplay:10.37,2013-03-18 09:43:00,
2013-03-18 05:48:00,30.9,25.2,29.89,ESE,112,4.6,5.9,79,0.00,OVC,OVC,0.00,WeatherDisplay:10.37,2013-03-18 09:48:00,
2013-03-18 05:53:00,30.9,25.2,29.89,ESE,112,4.6,5.9,79,0.00,OVC,OVC,0.00,WeatherDisplay:10.37,2013-03-18 09:53:00,
2013-03-18 05:58:00,31.1,25.3,29.89,SE,135,4.6,4.6,79,0.00,OVC,OVC,0.00,WeatherDisplay:10.37,2013-03-18 09:58:00,
2013-03-18 06:03:00,31.1,25.3,29.89,ESE,112,4.6,4.9,79,0.00,OVC,OVC,0.00,WeatherDisplay:10.37,2013-03-18 10:03:00,
2013-03-18 06:08:00,31.1,25.3,29.89,ESE,112,4.6,4.9,79,0.00,OVC,OVC,0.00,WeatherDisplay:10.37,2013-03-18 10:08:00,
2013-03-18 06:13:00,31.1,25.3,29.89,ESE,112,4.6,4.9,79,0.00,OVC,OVC,0.00,WeatherDisplay:10.37,2013-03-18 10:13:00,
2013-03-18 06:18:00,31.3,25.5,29.89,ESE,112,5.8,5.8,79,0.00,OVC,OVC,0.00,WeatherDisplay:10.37,2013-03-18 10:18:00,
2013-03-18 06:23:00,31.3,25.5,29.86,ESE,112,6.9,6.9,79,0.00,OVC,OVC,0.00,WeatherDisplay:10.37,2013-03-18 10:23:00,
2013-03-18 06:28:00,31.5,25.7,29.86,ESE,112,5.8,5.8,79,0.00,OVC,OVC,0.00,WeatherDisplay:10.37,2013-03-18 10:28:00,
2013-03-18 06:33:00,31.6,25.9,29.86,ESE,112,4.6,4.6,79,0.00,OVC,OVC,0.00,WeatherDisplay:10.37,2013-03-18 10:33:00,
2013-03-18 06:38:00,31.6,25.6,29.86,ESE,112,6.9,7.8,78,0.00,OVC,OVC,0.00,WeatherDisplay:10.37,2013-03-18 10:38:00,
2013-03-18 06:43:00,31.6,25.9,29.86,ESE,112,6.9,6.9,79,0.00,OVC,OVC,0.00,WeatherDisplay:10.37,2013-03-18 10:43:00,
2013-03-18 06:48:00,31.8,26.0,29.86,ESE,112,4.6,5.8,79,0.00,OVC,OVC,0.00,WeatherDisplay:10.37,2013-03-18 10:48:00,
2013-03-18 06:53:00,31.8,26.0,29.86,ESE,112,5.8,5.8,79,0.00,OVC,OVC,0.00,WeatherDisplay:10.37,2013-03-18 10:53:00,
2013-03-18 06:58:00,31.8,26.0,29.86,ESE,112,4.6,4.6,79,0.00,OVC,OVC,0.00,WeatherDisplay:10.37,2013-03-18 10:58:00,
2013-03-18 07:03:00,31.8,26.0,29.86,ESE,112,6.9,6.9,79,0.00,OVC,OVC,0.00,WeatherDisplay:10.37,2013-03-18 11:03:00,
2013-03-18 07:08:00,31.8,26.0,29.86,ESE,112,6.9,6.9,79,0.00,OVC,OVC,0.00,WeatherDisplay:10.37,2013-03-18 11:08:00,
2013-03-18 07:13:00,31.8,26.0,29.84,ESE,112,5.8,6.3,79,0.00,OVC,OVC,0.00,WeatherDisplay:10.37,2013-03-18 11:13:00,
2013-03-18 07:18:00,31.8,26.0,29.84,ESE,112,5.8,5.8,79,0.00,OVC,OVC,0.00,WeatherDisplay:10.37,2013-03-18 11:18:00,
2013-03-18 07:23:00,31.8,26.0,29.84,ESE,112,6.9,6.9,79,0.00,OVC,OVC,0.00,WeatherDisplay:10.37,2013-03-18 11:23:00,
2013-03-18 07:28:00,31.8,26.0,29.84,ESE,112,4.6,4.6,79,0.00,OVC,OVC,0.00,WeatherDisplay:10.37,2013-03-18 11:28:00,
2013-03-18 07:33:00,31.8,26.0,29.84,ESE,112,3.5,4.5,79,0.00,OVC,OVC,0.00,WeatherDisplay:10.37,2013-03-18 11:33:00,
2013-03-18 07:39:00,31.8,26.0,29.83,ESE,112,8.1,8.1,79,0.00,OVC,OVC,0.00,WeatherDisplay:10.37,2013-03-18 11:39:00,
2013-03-18 07:44:00,31.8,26.0,29.83,SE,135,5.8,6.1,79,0.00,OVC,OVC,0.00,WeatherDisplay:10.37,2013-03-18 11:44:00,
2013-03-18 07:49:00,31.8,26.0,29.83,East,90,3.5,4.5,79,0.00,OVC,OVC,0.00,WeatherDisplay:10.37,2013-03-18 11:49:00,
2013-03-18 07:54:00,31.8,26.0,29.83,ESE,112,6.9,6.9,79,0.00,OVC,OVC,0.00,WeatherDisplay:10.37,2013-03-18 11:54:00,
2013-03-18 07:59:00,31.8,26.0,29.83,ESE,112,4.6,4.7,79,0.00,OVC,OVC,0.00,WeatherDisplay:10.37,2013-03-18 11:59:00,
2013-03-18 08:04:00,31.8,26.0,29.83,ESE,112,5.8,5.8,79,0.00,OVC,OVC,0.00,WeatherDisplay:10.37,2013-03-18 12:04:00,
2013-03-18 08:09:00,31.8,26.0,29.83,ESE,112,5.8,5.8,79,0.00,OVC,OVC,0.00,WeatherDisplay:10.37,2013-03-18 12:09:00,
2013-03-18 08:14:00,31.8,26.0,29.83,East,90,6.9,7.0,79,0.00,OVC,OVC,0.00,WeatherDisplay:10.37,2013-03-18 12:14:00,
2013-03-18 08:19:00,31.8,26.0,29.82,ESE,112,3.5,4.8,79,0.00,OVC,OVC,0.00,WeatherDisplay:10.37,2013-03-18 12:19:00,
2013-03-18 08:24:00,31.8,26.0,29.82,ESE,112,5.8,6.2,79,0.00,OVC,OVC,0.00,WeatherDisplay:10.37,2013-03-18 12:24:00,
2013-03-18 08:29:00,31.8,26.7,29.81,ESE,112,4.6,4.6,81,0.00,OVC,OVC,0.00,WeatherDisplay:10.37,2013-03-18 12:29:00,
2013-03-18 08:34:00,31.8,26.7,29.81,East,90,6.3,6.3,81,0.00,OVC,OVC,0.00,WeatherDisplay:10.37,2013-03-18 12:34:00,
2013-03-18 08:39:00,31.8,26.7,29.81,East,90,2.3,5.1,81,0.00,OVC,OVC,0.00,WeatherDisplay:10.37,2013-03-18 12:39:00,
2013-03-18 08:44:00,31.8,26.7,29.81,ESE,112,3.5,3.6,81,0.00,OVC,OVC,0.00,WeatherDisplay:10.37,2013-03-18 12:44:00,
2013-03-18 08:49:00,31.8,27.2,29.81,ESE,112,4.6,4.6,83,0.00,OVC,OVC,0.00,WeatherDisplay:10.37,2013-03-18 12:49:00,
2013-03-18 08:54:00,31.8,27.2,29.81,ESE,112,2.3,2.3,83,0.00,OVC,OVC,0.00,WeatherDisplay:10.37,2013-03-18 12:54:00,
2013-03-18 08:59:00,31.8,27.2,29.81,ESE,112,5.8,5.8,83,0.00,OVC,OVC,0.00,WeatherDisplay:10.37,2013-03-18 12:59:00,
2013-03-18 09:04:00,31.8,27.5,29.79,ESE,112,3.5,4.4,84,0.00,OVC,OVC,0.00,WeatherDisplay:10.37,2013-03-18 13:04:00,
2013-03-18 09:09:00,31.8,27.5,29.79,ESE,112,3.5,4.8,84,0.00,OVC,OVC,0.00,WeatherDisplay:10.37,2013-03-18 13:09:00,
2013-03-18 09:14:00,32.0,27.7,29.79,ESE,112,3.5,3.8,84,0.00,OVC,OVC,0.00,WeatherDisplay:10.37,2013-03-18 13:14:00,
2013-03-18 09:19:00,32.2,27.9,29.79,SE,135,3.5,3.5,84,0.00,OVC,OVC,0.00,WeatherDisplay:10.37,2013-03-18 13:19:00,
2013-03-18 09:24:00,32.2,27.9,29.79,East,90,3.5,3.5,84,0.00,OVC,OVC,0.00,WeatherDisplay:10.37,2013-03-18 13:24:00,
2013-03-18 09:29:00,32.2,27.9,29.77,ESE,112,4.6,4.6,84,0.00,OVC,OVC,0.00,WeatherDisplay:10.37,2013-03-18 13:29:00,
2013-03-18 09:34:00,32.2,27.9,29.77,East,90,2.3,2.3,84,0.00,OVC,OVC,0.00,WeatherDisplay:10.37,2013-03-18 13:34:00,
2013-03-18 09:39:00,32.2,27.9,29.77,ESE,112,3.5,3.5,84,0.00,OVC,OVC,0.00,WeatherDisplay:10.37,2013-03-18 13:39:00,
2013-03-18 09:44:00,32.2,28.2,29.77,East,90,4.9,4.9,85,0.00,OVC,OVC,0.00,WeatherDisplay:10.37,2013-03-18 13:44:00,
2013-03-18 09:49:00,32.2,28.2,29.77,ESE,112,4.6,4.6,85,0.00,OVC,OVC,0.00,WeatherDisplay:10.37,2013-03-18 13:49:00,
2013-03-18 09:54:00,32.2,28.2,29.77,ESE,112,4.9,4.9,85,0.00,OVC,OVC,0.00,WeatherDisplay:10.37,2013-03-18 13:54:00,
2013-03-18 09:59:00,32.2,28.2,29.77,East,90,5.8,5.8,85,0.00,OVC,OVC,0.00,WeatherDisplay:10.37,2013-03-18 13:59:00,
2013-03-18 10:04:00,32.2,28.2,29.76,ESE,112,4.6,4.6,85,0.00,OVC,OVC,0.00,WeatherDisplay:10.37,2013-03-18 14:04:00,
2013-03-18 10:09:00,32.2,28.5,29.76,ESE,112,3.5,3.6,86,0.00,OVC,OVC,0.00,WeatherDisplay:10.37,2013-03-18 14:09:00,
2013-03-18 10:14:00,32.2,28.5,29.76,ESE,112,6.3,6.3,86,0.00,OVC,OVC,0.00,WeatherDisplay:10.37,2013-03-18 14:14:00,
2013-03-18 10:19:00,32.2,28.5,29.76,ESE,112,5.8,5.8,86,0.00,OVC,OVC,0.00,WeatherDisplay:10.37,2013-03-18 14:19:00,
2013-03-18 10:24:00,32.2,28.5,29.76,ESE,112,8.1,8.5,86,0.00,OVC,OVC,0.00,WeatherDisplay:10.37,2013-03-18 14:24:00,
2013-03-18 10:29:00,32.2,28.5,29.76,East,90,5.8,5.8,86,0.00,OVC,OVC,0.00,WeatherDisplay:10.37,2013-03-18 14:29:00,
2013-03-18 10:34:00,32.2,28.5,29.73,ESE,112,4.6,4.6,86,0.00,OVC,OVC,0.00,WeatherDisplay:10.37,2013-03-18 14:34:00,
2013-03-18 10:39:00,32.2,28.5,29.73,ENE,68,4.6,4.6,86,0.00,OVC,OVC,0.00,WeatherDisplay:10.37,2013-03-18 14:39:00,
2013-03-18 10:44:00,32.2,28.5,29.73,ESE,112,3.6,3.6,86,0.00,OVC,OVC,0.00,WeatherDisplay:10.37,2013-03-18 14:44:00,
2013-03-18 10:49:00,32.4,28.9,29.73,ENE,68,3.5,3.5,87,0.00,OVC,OVC,0.00,WeatherDisplay:10.37,2013-03-18 14:49:00,
2013-03-18 10:54:00,32.4,28.9,29.73,ESE,112,6.0,6.0,87,0.00,OVC,OVC,0.00,WeatherDisplay:10.37,2013-03-18 14:54:00,
2013-03-18 10:59:00,32.4,28.9,29.73,ESE,112,4.6,4.6,87,0.00,OVC,OVC,0.00,WeatherDisplay:10.37,2013-03-18 14:59:00,
2013-03-18 11:04:00,32.7,29.6,29.72,ESE,112,3.5,3.8,88,0.00,OVC,OVC,0.00,WeatherDisplay:10.37,2013-03-18 15:04:00,
2013-03-18 11:09:00,32.9,29.7,29.72,ESE,112,3.5,6.2,88,0.00,OVC,OVC,0.00,WeatherDisplay:10.37,2013-03-18 15:09:00,
2013-03-18 11:14:00,32.9,29.7,29.71,ESE,112,0.0,4.2,88,0.00,OVC,OVC,0.00,WeatherDisplay:10.37,2013-03-18 15:14:00,
2013-03-18 11:19:00,33.1,29.9,29.71,ESE,112,4.6,4.6,88,0.00,OVC,OVC,0.00,WeatherDisplay:10.37,2013-03-18 15:19:00,
2013-03-18 11:24:00,33.1,29.9,29.71,ESE,112,4.7,4.7,88,0.00,OVC,OVC,0.00,WeatherDisplay:10.37,2013-03-18 15:24:00,
2013-03-18 11:29:00,33.1,29.9,29.71,ESE,112,5.8,5.8,88,0.00,OVC,OVC,0.00,WeatherDisplay:10.37,2013-03-18 15:29:00,
2013-03-18 11:34:00,33.1,29.9,29.69,ESE,112,5.8,5.8,88,0.00,OVC,OVC,0.00,WeatherDisplay:10.37,2013-03-18 15:34:00,
2013-03-18 11:39:00,33.1,29.9,29.69,ESE,112,3.5,3.5,88,0.00,OVC,OVC,0.00,WeatherDisplay:10.37,2013-03-18 15:39:00,
2013-03-18 11:44:00,33.3,30.1,29.69,SE,135,3.5,3.5,88,0.00,OVC,OVC,0.00,WeatherDisplay:10.37,2013-03-18 15:44:00,
2013-03-18 11:49:00,33.1,29.9,29.69,ESE,112,2.3,2.3,88,0.00,OVC,OVC,0.00,WeatherDisplay:10.37,2013-03-18 15:49:00,
2013-03-18 11:54:00,33.3,30.4,29.69,ESE,112,4.0,4.0,89,0.00,OVC,OVC,0.00,WeatherDisplay:10.37,2013-03-18 15:54:00,
2013-03-18 11:59:00,33.3,30.4,29.69,NE,45,1.8,1.8,89,0.00,OVC,OVC,0.00,WeatherDisplay:10.37,2013-03-18 15:59:00,
2013-03-18 12:04:00,33.3,30.4,29.69,ESE,112,4.6,5.1,89,0.00,OVC,OVC,0.00,WeatherDisplay:10.37,2013-03-18 16:04:00,
2013-03-18 12:09:00,33.4,30.5,29.69,ESE,112,3.5,3.5,89,0.00,OVC,OVC,0.00,WeatherDisplay:10.37,2013-03-18 16:09:00,
2013-03-18 12:14:00,33.4,30.5,29.69,ESE,112,4.9,4.9,89,0.00,OVC,OVC,0.00,WeatherDisplay:10.37,2013-03-18 16:14:00,
2013-03-18 12:19:00,33.4,30.5,29.69,ESE,112,4.7,4.7,89,0.00,OVC,OVC,0.00,WeatherDisplay:10.37,2013-03-18 16:19:00,
2013-03-18 12:24:00,33.4,30.5,29.69,ESE,112,3.5,3.5,89,0.00,OVC,OVC,0.00,WeatherDisplay:10.37,2013-03-18 16:24:00,
2013-03-18 12:29:00,33.6,30.7,29.69,ESE,112,4.6,4.6,89,0.00,OVC,OVC,0.00,WeatherDisplay:10.37,2013-03-18 16:29:00,
2013-03-18 12:34:00,33.6,30.7,29.69,ESE,112,3.6,3.8,89,0.00,OVC,OVC,0.00,WeatherDisplay:10.37,2013-03-18 16:34:00,
2013-03-18 12:39:00,33.6,30.7,29.68,North,0,0.0,2.9,89,0.00,OVC,OVC,0.00,WeatherDisplay:10.37,2013-03-18 16:39:00,
2013-03-18 12:44:00,33.6,30.7,29.67,ESE,112,4.7,4.7,89,0.00,OVC,OVC,0.00,WeatherDisplay:10.37,2013-03-18 16:44:00,
2013-03-18 12:49:00,33.6,30.7,29.67,ESE,112,4.2,4.2,89,0.00,OVC,OVC,0.00,WeatherDisplay:10.37,2013-03-18 16:49:00,
2013-03-18 12:54:00,33.6,30.7,29.66,ESE,112,4.6,4.6,89,0.00,OVC,OVC,0.00,WeatherDisplay:10.37,2013-03-18 16:54:00,
2013-03-18 12:59:00,33.8,30.9,29.67,ESE,112,3.5,4.1,89,0.00,OVC,OVC,0.00,WeatherDisplay:10.37,2013-03-18 16:59:00,
2013-03-18 13:04:00,34.0,31.1,29.67,ESE,112,4.6,4.6,89,0.00,OVC,OVC,0.00,WeatherDisplay:10.37,2013-03-18 17:04:00,
2013-03-18 13:09:00,34.0,31.1,29.67,ESE,112,4.6,4.6,89,0.00,OVC,OVC,0.00,WeatherDisplay:10.37,2013-03-18 17:09:00,
2013-03-18 13:14:00,34.2,31.3,29.67,ESE,112,3.8,3.8,89,0.00,OVC,OVC,0.00,WeatherDisplay:10.37,2013-03-18 17:14:00,
2013-03-18 13:19:00,34.2,31.3,29.67,ESE,112,4.6,4.7,89,0.00,OVC,OVC,0.00,WeatherDisplay:10.37,2013-03-18 17:19:00,
2013-03-18 13:25:00,34.3,31.4,29.67,ESE,112,2.3,3.7,89,0.00,OVC,OVC,0.00,WeatherDisplay:10.37,2013-03-18 17:25:00,
2013-03-18 13:30:00,34.3,31.7,29.64,ESE,112,4.6,4.6,90,0.00,OVC,OVC,0.00,WeatherDisplay:10.37,2013-03-18 17:30:00,
2013-03-18 13:35:00,34.5,31.9,29.64,ESE,112,4.6,4.6,90,0.00,OVC,OVC,0.00,WeatherDisplay:10.37,2013-03-18 17:35:00,
2013-03-18 13:40:00,34.5,31.9,29.64,ESE,112,4.2,4.2,90,0.00,OVC,OVC,0.00,WeatherDisplay:10.37,2013-03-18 17:40:00,
2013-03-18 13:45:00,34.7,32.1,29.63,ESE,112,3.5,3.5,90,0.00,OVC,OVC,0.00,WeatherDisplay:10.37,2013-03-18 17:45:00,
2013-03-18 13:50:00,34.7,32.1,29.63,ESE,112,3.5,3.5,90,0.00,OVC,OVC,0.00,WeatherDisplay:10.37,2013-03-18 17:50:00,
2013-03-18 13:55:00,34.9,32.2,29.62,SE,135,3.5,3.8,90,0.00,OVC,OVC,0.00,WeatherDisplay:10.37,2013-03-18 17:55:00,
2013-03-18 14:00:00,34.9,32.2,29.61,ESE,112,4.0,4.0,90,0.00,OVC,OVC,0.00,WeatherDisplay:10.37,2013-03-18 18:00:00,
2013-03-18 14:05:00,34.9,32.2,29.61,ESE,112,3.5,3.9,90,0.00,OVC,OVC,0.00,WeatherDisplay:10.37,2013-03-18 18:05:00,
2013-03-18 14:10:00,34.9,32.2,29.61,ESE,112,3.5,3.6,90,0.00,OVC,OVC,0.00,WeatherDisplay:10.37,2013-03-18 18:10:00,
2013-03-18 14:15:00,35.1,32.4,29.61,ESE,112,1.2,0.0,90,0.00,OVC,OVC,0.00,WeatherDisplay:10.37,2013-03-18 18:15:00,
2013-03-18 14:20:00,34.9,32.2,29.60,ESE,112,2.3,2.3,90,0.00,OVC,OVC,0.00,WeatherDisplay:10.37,2013-03-18 18:20:00,
2013-03-18 14:25:00,35.1,32.4,29.60,ESE,112,2.3,2.3,90,0.00,OVC,OVC,0.00,WeatherDisplay:10.37,2013-03-18 18:25:00,
2013-03-18 14:30:00,35.1,32.4,29.59,ESE,112,3.5,3.8,90,0.00,OVC,OVC,0.00,WeatherDisplay:10.37,2013-03-18 18:30:00,
2013-03-18 14:35:00,34.9,32.2,29.59,ESE,112,2.3,2.9,90,0.00,OVC,OVC,0.00,WeatherDisplay:10.37,2013-03-18 18:35:00,
2013-03-18 14:40:00,34.9,32.2,29.58,ESE,112,4.6,4.6,90,0.00,OVC,OVC,0.00,WeatherDisplay:10.37,2013-03-18 18:40:00,
2013-03-18 14:45:00,34.9,32.2,29.58,East,90,3.5,4.0,90,0.00,OVC,OVC,0.00,WeatherDisplay:10.37,2013-03-18 18:45:00,
2013-03-18 14:50:00,35.4,32.8,29.58,ESE,112,4.6,4.6,90,0.00,OVC,OVC,0.00,WeatherDisplay:10.37,2013-03-18 18:50:00,
2013-03-18 14:55:00,35.4,32.8,29.58,ESE,112,2.3,4.2,90,0.00,OVC,OVC,0.00,WeatherDisplay:10.37,2013-03-18 18:55:00,
2013-03-18 15:00:00,35.8,33.1,29.55,ESE,112,3.5,3.5,90,0.00,OVC,OVC,0.00,WeatherDisplay:10.37,2013-03-18 19:00:00,
2013-03-18 15:05:00,36.1,33.5,29.55,ESE,112,3.5,3.5,90,0.00,OVC,OVC,0.00,WeatherDisplay:10.37,2013-03-18 19:05:00,
2013-03-18 15:10:00,36.1,33.5,29.55,ESE,112,3.5,3.5,90,0.00,OVC,OVC,0.00,WeatherDisplay:10.37,2013-03-18 19:10:00,
2013-03-18 15:15:00,36.1,33.5,29.55,ESE,112,3.6,3.6,90,0.00,OVC,OVC,0.00,WeatherDisplay:10.37,2013-03-18 19:15:00,
2013-03-18 15:20:00,36.1,33.5,29.54,East,90,3.5,3.5,90,0.00,OVC,OVC,0.00,WeatherDisplay:10.37,2013-03-18 19:20:00,
2013-03-18 15:25:00,36.0,33.3,29.54,ESE,112,2.3,3.4,90,0.00,OVC,OVC,0.00,WeatherDisplay:10.37,2013-03-18 19:25:00,
2013-03-18 15:30:00,36.1,33.5,29.54,ESE,112,4.9,4.9,90,0.00,OVC,OVC,0.00,WeatherDisplay:10.37,2013-03-18 19:30:00,
2013-03-18 15:35:00,36.1,33.5,29.54,ESE,112,3.5,3.5,90,0.00,OVC,OVC,0.00,WeatherDisplay:10.37,2013-03-18 19:35:00,
2013-03-18 15:40:00,36.3,33.7,29.52,ESE,112,4.7,4.7,90,0.02,RA,RA,0.02,WeatherDisplay:10.37,2013-03-18 19:40:00,
2013-03-18 15:45:00,36.3,33.7,29.52,ESE,112,3.5,4.0,90,0.02,RA,RA,0.02,WeatherDisplay:10.37,2013-03-18 19:45:00,
2013-03-18 15:50:00,36.5,33.8,29.50,ESE,112,3.5,3.5,90,0.02,OVC,OVC,0.02,WeatherDisplay:10.37,2013-03-18 19:50:00,
2013-03-18 15:55:00,36.5,33.8,29.50,ESE,112,3.5,3.5,90,0.02,OVC,OVC,0.02,WeatherDisplay:10.37,2013-03-18 19:55:00,
2013-03-18 16:00:00,36.9,34.2,29.50,ESE,112,4.0,4.0,90,0.02,OVC,OVC,0.02,WeatherDisplay:10.37,2013-03-18 20:00:00,
2013-03-18 16:05:00,36.7,34.3,29.51,East,90,3.5,3.5,91,0.02,OVC,OVC,0.02,WeatherDisplay:10.37,2013-03-18 20:05:00,
2013-03-18 16:10:00,36.7,34.3,29.51,ESE,112,3.5,3.5,91,0.02,OVC,OVC,0.02,WeatherDisplay:10.37,2013-03-18 20:10:00,
2013-03-18 16:15:00,36.7,34.3,29.51,ESE,112,1.2,2.9,91,0.02,OVC,OVC,0.02,WeatherDisplay:10.37,2013-03-18 20:15:00,
2013-03-18 16:20:00,36.7,34.3,29.51,ESE,112,2.3,2.3,91,0.02,OVC,OVC,0.02,WeatherDisplay:10.37,2013-03-18 20:20:00,
2013-03-18 16:25:00,36.5,34.1,29.51,ESE,112,2.3,2.5,91,0.02,OVC,OVC,0.02,WeatherDisplay:10.37,2013-03-18 20:25:00,
2013-03-18 16:30:00,36.3,33.7,29.51,ESE,112,2.3,2.3,90,0.02,OVC,OVC,0.02,WeatherDisplay:10.37,2013-03-18 20:30:00,
2013-03-18 16:35:00,36.3,33.7,29.51,ESE,112,2.3,2.3,90,0.02,OVC,OVC,0.02,WeatherDisplay:10.37,2013-03-18 20:35:00,
2013-03-18 16:40:00,36.3,33.7,29.52,ESE,112,3.5,3.5,90,0.00,OVC,OVC,0.02,WeatherDisplay:10.37,2013-03-18 20:40:00,
2013-03-18 16:45:00,36.3,33.7,29.52,ESE,112,0.0,1.9,90,0.00,OVC,OVC,0.02,WeatherDisplay:10.37,2013-03-18 20:45:00,
2013-03-18 16:50:00,36.1,33.5,29.51,East,90,0.0,0.0,90,0.00,OVC,OVC,0.02,WeatherDisplay:10.37,2013-03-18 20:50:00,
2013-03-18 16:55:00,36.1,33.5,29.50,ESE,112,3.5,3.5,90,0.00,OVC,OVC,0.02,WeatherDisplay:10.37,2013-03-18 20:55:00,
2013-03-18 17:00:00,36.1,33.5,29.50,ESE,112,2.3,2.3,90,0.00,OVC,OVC,0.02,WeatherDisplay:10.37,2013-03-18 21:00:00,
2013-03-18 17:05:00,36.1,33.5,29.50,East,90,0.0,1.4,90,0.00,OVC,OVC,0.02,WeatherDisplay:10.37,2013-03-18 21:05:00,
2013-03-18 17:10:00,36.1,33.5,29.49,ESE,112,1.6,1.6,90,0.00,OVC,OVC,0.02,WeatherDisplay:10.37,2013-03-18 21:10:00,
2013-03-18 17:15:00,36.1,33.5,29.49,ESE,112,2.3,2.5,90,0.00,OVC,OVC,0.02,WeatherDisplay:10.37,2013-03-18 21:15:00,
2013-03-18 17:20:00,36.1,33.5,29.49,ESE,112,2.3,2.3,90,0.00,OVC,OVC,0.02,WeatherDisplay:10.37,2013-03-18 21:20:00,
2013-03-18 17:25:00,36.1,33.5,29.49,ESE,112,0.0,1.5,90,0.00,OVC,OVC,0.02,WeatherDisplay:10.37,2013-03-18 21:25:00,
2013-03-18 17:30:00,36.1,33.5,29.50,ESE,112,0.0,0.0,90,0.00,OVC,OVC,0.02,WeatherDisplay:10.37,2013-03-18 21:30:00,
2013-03-18 17:35:00,36.1,33.5,29.50,ESE,112,1.2,0.0,90,0.00,OVC,OVC,0.02,WeatherDisplay:10.37,2013-03-18 21:35:00,
2013-03-18 17:40:00,36.1,33.5,29.50,ESE,112,1.2,1.2,90,0.00,OVC,OVC,0.02,WeatherDisplay:10.37,2013-03-18 21:40:00,
2013-03-18 17:45:00,36.3,33.7,29.50,ESE,112,0.0,2.3,90,0.00,OVC,OVC,0.02,WeatherDisplay:10.37,2013-03-18 21:45:00,
2013-03-18 17:50:00,36.1,33.5,29.50,SE,135,0.0,0.0,90,0.00,OVC,OVC,0.02,WeatherDisplay:10.37,2013-03-18 21:50:00,
2013-03-18 17:55:00,36.1,33.5,29.50,SE,135,0.0,0.0,90,0.00,OVC,OVC,0.02,WeatherDisplay:10.37,2013-03-18 21:55:00,
2013-03-18 18:00:00,36.1,33.5,29.50,ESE,112,2.3,2.3,90,0.00,OVC,OVC,0.02,WeatherDisplay:10.37,2013-03-18 22:00:00,
2013-03-18 18:05:00,36.1,33.5,29.50,SE,135,0.0,0.0,90,0.00,OVC,OVC,0.02,WeatherDisplay:10.37,2013-03-18 22:05:00,
2013-03-18 18:10:00,36.1,33.5,29.50,SE,135,0.0,0.0,90,0.00,OVC,OVC,0.02,WeatherDisplay:10.37,2013-03-18 22:10:00,
2013-03-18 18:15:00,36.0,33.3,29.50,SE,135,0.0,0.0,90,0.00,OVC,OVC,0.02,WeatherDisplay:10.37,2013-03-18 22:15:00,
2013-03-18 18:20:00,36.0,33.3,29.50,SE,135,0.0,0.0,90,0.00,OVC,OVC,0.02,WeatherDisplay:10.37,2013-03-18 22:20:00,
2013-03-18 18:25:00,35.8,33.1,29.50,SE,135,0.0,0.0,90,0.00,OVC,OVC,0.02,WeatherDisplay:10.37,2013-03-18 22:25:00,
2013-03-18 18:30:00,36.0,33.3,29.49,SE,135,0.0,0.0,90,0.00,OVC,OVC,0.02,WeatherDisplay:10.37,2013-03-18 22:30:00,
2013-03-18 18:35:00,36.0,33.3,29.49,SE,135,0.0,0.0,90,0.00,OVC,OVC,0.02,WeatherDisplay:10.37,2013-03-18 22:35:00,
2013-03-18 18:40:00,36.1,33.5,29.48,SE,135,0.0,0.0,90,0.00,OVC,OVC,0.02,WeatherDisplay:10.37,2013-03-18 22:40:00,
2013-03-18 18:45:00,36.0,33.3,29.48,SE,135,0.0,0.0,90,0.00,OVC,OVC,0.02,WeatherDisplay:10.37,2013-03-18 22:45:00,
2013-03-18 18:50:00,36.0,33.3,29.48,SE,135,0.0,0.0,90,0.00,OVC,OVC,0.02,WeatherDisplay:10.37,2013-03-18 22:50:00,
2013-03-18 18:56:00,36.0,33.3,29.48,SW,225,0.0,0.0,90,0.00,OVC,OVC,0.02,WeatherDisplay:10.37,2013-03-18 22:56:00,
2013-03-18 19:01:00,36.0,33.3,29.48,WSW,248,0.0,0.0,90,0.00,OVC,OVC,0.02,WeatherDisplay:10.37,2013-03-18 23:01:00,
2013-03-18 19:06:00,36.0,33.3,29.48,WSW,248,0.0,0.0,90,0.00,OVC,OVC,0.02,WeatherDisplay:10.37,2013-03-18 23:06:00,
2013-03-18 19:11:00,36.1,33.5,29.48,West,270,3.5,3.5,90,0.00,OVC,OVC,0.02,WeatherDisplay:10.37,2013-03-18 23:11:00,
2013-03-18 19:16:00,36.1,33.5,29.48,WSW,248,5.8,5.8,90,0.00,OVC,OVC,0.02,WeatherDisplay:10.37,2013-03-18 23:16:00,
2013-03-18 19:21:00,36.5,34.1,29.50,WSW,248,5.8,5.8,91,0.00,OVC,OVC,0.02,WeatherDisplay:10.37,2013-03-18 23:21:00,
2013-03-18 19:26:00,37.2,34.8,29.51,WSW,248,8.5,8.5,91,0.00,OVC,OVC,0.02,WeatherDisplay:10.37,2013-03-18 23:26:00,
2013-03-18 19:31:00,37.2,34.8,29.51,WSW,248,9.2,9.2,91,0.00,OVC,OVC,0.02,WeatherDisplay:10.37,2013-03-18 23:31:00,
2013-03-18 19:36:00,37.2,34.8,29.51,SW,225,6.9,7.0,91,0.00,OVC,OVC,0.02,WeatherDisplay:10.37,2013-03-18 23:36:00,
2013-03-18 19:41:00,37.8,35.6,29.51,WSW,248,8.1,8.1,92,0.00,OVC,OVC,0.02,WeatherDisplay:10.37,2013-03-18 23:41:00,
2013-03-18 19:46:00,37.8,35.6,29.51,West,270,6.9,7.1,92,0.00,OVC,OVC,0.02,WeatherDisplay:10.37,2013-03-18 23:46:00,
2013-03-18 19:51:00,37.8,35.6,29.51,South,180,4.6,4.6,92,0.00,OVC,OVC,0.02,WeatherDisplay:10.37,2013-03-18 23:51:00,
2013-03-18 19:56:00,37.6,35.5,29.51,West,270,11.5,11.5,92,0.00,OVC,OVC,0.02,WeatherDisplay:10.37,2013-03-18 23:56:00,
2013-03-18 20:01:00,37.6,35.5,29.51,West,270,5.8,10.8,92,0.00,OVC,OVC,0.02,WeatherDisplay:10.37,2013-03-19 00:01:00,
2013-03-18 20:06:00,37.6,35.5,29.51,SW,225,2.3,6.9,92,0.00,OVC,OVC,0.02,WeatherDisplay:10.37,2013-03-19 00:06:00,
2013-03-18 20:11:00,37.2,35.1,29.51,SW,225,10.4,10.4,92,0.00,OVC,OVC,0.02,WeatherDisplay:10.37,2013-03-19 00:11:00,
2013-03-18 20:16:00,37.2,35.1,29.51,WSW,248,17.3,17.3,92,0.00,OVC,OVC,0.02,WeatherDisplay:10.37,2013-03-19 00:16:00,
2013-03-18 20:21:00,37.2,35.1,29.51,West,270,9.2,9.2,92,0.00,OVC,OVC,0.02,WeatherDisplay:10.37,2013-03-19 00:21:00,
2013-03-18 20:27:00,37.2,35.1,29.51,WSW,248,10.4,10.4,92,0.00,OVC,OVC,0.02,WeatherDisplay:10.37,2013-03-19 00:27:00,
2013-03-18 20:32:00,37.0,34.7,29.53,WSW,248,10.4,10.4,91,0.00,OVC,OVC,0.02,WeatherDisplay:10.37,2013-03-19 00:32:00,
2013-03-18 20:37:00,37.0,34.7,29.53,WSW,248,16.1,16.3,91,0.00,OVC,OVC,0.02,WeatherDisplay:10.37,2013-03-19 00:37:00,
2013-03-18 20:42:00,37.0,34.7,29.53,SW,225,8.5,8.5,91,0.00,OVC,OVC,0.02,WeatherDisplay:10.37,2013-03-19 00:42:00,
2013-03-18 20:47:00,37.0,34.7,29.53,SSW,202,6.9,11.4,91,0.00,OVC,OVC,0.02,WeatherDisplay:10.37,2013-03-19 00:47:00,
2013-03-18 20:52:00,37.0,34.7,29.54,SW,225,9.2,9.2,91,0.00,OVC,OVC,0.02,WeatherDisplay:10.37,2013-03-19 00:52:00,
2013-03-18 20:57:00,37.0,34.7,29.54,WSW,248,11.8,11.8,91,0.00,OVC,OVC,0.02,WeatherDisplay:10.37,2013-03-19 00:57:00,
2013-03-18 21:02:00,36.9,34.5,29.54,West,270,11.5,11.5,91,0.00,OVC,OVC,0.02,WeatherDisplay:10.37,2013-03-19 01:02:00,
2013-03-18 21:07:00,36.9,34.5,29.54,WNW,292,9.2,9.5,91,0.00,OVC,OVC,0.02,WeatherDisplay:10.37,2013-03-19 01:07:00,
2013-03-18 21:12:00,36.9,34.5,29.55,WSW,248,9.6,11.3,91,0.00,OVC,OVC,0.02,WeatherDisplay:10.37,2013-03-19 01:12:00,
2013-03-18 21:17:00,36.9,34.5,29.55,WSW,248,10.4,10.4,91,0.00,OVC,OVC,0.02,WeatherDisplay:10.37,2013-03-19 01:17:00,
2013-03-18 21:22:00,36.7,34.3,29.55,West,270,9.2,9.2,91,0.00,OVC,OVC,0.02,WeatherDisplay:10.37,2013-03-19 01:22:00,
2013-03-18 21:27:00,36.7,34.3,29.55,SW,225,16.1,16.1,91,0.00,OVC,OVC,0.02,WeatherDisplay:10.37,2013-03-19 01:27:00,
2013-03-18 21:32:00,36.7,34.3,29.55,SW,225,12.7,12.7,91,0.00,OVC,OVC,0.02,WeatherDisplay:10.37,2013-03-19 01:32:00,
2013-03-18 21:37:00,36.7,34.3,29.55,WSW,248,6.9,6.9,91,0.00,OVC,OVC,0.02,WeatherDisplay:10.37,2013-03-19 01:37:00,
2013-03-18 21:43:00,36.7,34.3,29.55,WNW,292,12.7,12.7,91,0.00,OVC,OVC,0.02,WeatherDisplay:10.37,2013-03-19 01:43:00,
2013-03-18 21:48:00,36.7,34.3,29.55,WSW,248,11.5,11.5,91,0.00,OVC,OVC,0.02,WeatherDisplay:10.37,2013-03-19 01:48:00,
2013-03-18 21:53:00,36.7,34.3,29.55,WSW,248,13.8,13.8,91,0.00,OVC,OVC,0.02,WeatherDisplay:10.37,2013-03-19 01:53:00,
2013-03-18 21:58:00,36.7,34.3,29.55,WNW,292,11.5,11.5,91,0.00,OVC,OVC,0.02,WeatherDisplay:10.37,2013-03-19 01:58:00,
2013-03-18 22:03:00,36.7,34.0,29.55,South,180,11.5,12.6,90,0.00,OVC,OVC,0.02,WeatherDisplay:10.37,2013-03-19 02:03:00,
2013-03-18 22:08:00,36.7,34.0,29.57,West,270,8.5,8.5,90,0.00,OVC,OVC,0.02,WeatherDisplay:10.37,2013-03-19 02:08:00,
2013-03-18 22:13:00,36.7,34.0,29.57,West,270,9.4,9.4,90,0.00,OVC,OVC,0.02,WeatherDisplay:10.37,2013-03-19 02:13:00,
2013-03-18 22:18:00,36.5,33.8,29.57,SW,225,10.4,10.4,90,0.00,OVC,OVC,0.02,WeatherDisplay:10.37,2013-03-19 02:18:00,
2013-03-18 22:23:00,36.5,33.8,29.58,WSW,248,12.7,12.7,90,0.00,OVC,OVC,0.02,WeatherDisplay:10.37,2013-03-19 02:23:00,
2013-03-18 22:28:00,36.5,33.8,29.58,West,270,8.1,8.1,90,0.00,OVC,OVC,0.02,WeatherDisplay:10.37,2013-03-19 02:28:00,
2013-03-18 22:33:00,36.5,33.8,29.58,West,270,4.6,5.1,90,0.00,OVC,OVC,0.02,WeatherDisplay:10.37,2013-03-19 02:33:00,
2013-03-18 22:38:00,36.3,33.4,29.59,SW,225,8.1,8.1,89,0.00,OVC,OVC,0.02,WeatherDisplay:10.37,2013-03-19 02:38:00,
2013-03-18 22:43:00,36.3,33.4,29.59,West,270,9.2,9.2,89,0.00,OVC,OVC,0.02,WeatherDisplay:10.37,2013-03-19 02:43:00,
2013-03-18 22:48:00,36.3,33.4,29.59,SW,225,10.4,10.4,89,0.00,OVC,OVC,0.02,WeatherDisplay:10.37,2013-03-19 02:48:00,
2013-03-18 22:53:00,36.1,33.2,29.59,WSW,248,5.8,10.9,89,0.00,OVC,OVC,0.02,WeatherDisplay:10.37,2013-03-19 02:53:00,
2013-03-18 22:58:00,36.1,33.2,29.58,WSW,248,11.6,11.6,89,0.00,OVC,OVC,0.02,WeatherDisplay:10.37,2013-03-19 02:58:00,
2013-03-18 23:03:00,36.1,33.2,29.58,WSW,248,8.1,9.8,89,0.00,OVC,OVC,0.02,WeatherDisplay:10.37,2013-03-19 03:03:00,
2013-03-18 23:09:00,36.0,33.0,29.59,WSW,248,5.8,6.1,89,0.00,OVC,OVC,0.02,WeatherDisplay:10.37,2013-03-19 03:09:00,
2013-03-18 23:14:00,36.0,32.8,29.59,SW,225,5.8,5.8,88,0.00,OVC,OVC,0.02,WeatherDisplay:10.37,2013-03-19 03:14:00,
2013-03-18 23:19:00,35.8,32.6,29.59,West,270,5.8,5.8,88,0.00,OVC,OVC,0.02,WeatherDisplay:10.37,2013-03-19 03:19:00,
2013-03-18 23:24:00,35.8,32.6,29.59,West,270,10.7,10.7,88,0.00,OVC,OVC,0.02,WeatherDisplay:10.37,2013-03-19 03:24:00,
2013-03-18 23:29:00,35.8,32.6,29.59,West,270,8.1,8.1,88,0.00,OVC,OVC,0.02,WeatherDisplay:10.37,2013-03-19 03:29:00,
2013-03-18 23:34:00,35.8,32.3,29.60,WSW,248,10.4,10.4,87,0.00,OVC,OVC,0.02,WeatherDisplay:10.37,2013-03-19 03:34:00,
2013-03-18 23:39:00,35.8,32.3,29.60,WSW,248,12.7,12.7,87,0.00,OVC,OVC,0.02,WeatherDisplay:10.37,2013-03-19 03:39:00,
2013-03-18 23:44:00,35.8,32.3,29.60,SSW,202,9.2,12.4,87,0.00,OVC,OVC,0.02,WeatherDisplay:10.37,2013-03-19 03:44:00,
2013-03-18 23:49:00,35.8,32.3,29.60,WSW,248,13.2,13.2,87,0.00,OVC,OVC,0.02,WeatherDisplay:10.37,2013-03-19 03:49:00,
2013-03-18 23:55:00,35.8,32.3,29.60,WNW,292,3.5,5.8,87,0.00,OVC,OVC,0.02,WeatherDisplay:10.37,2013-03-19 03:55:00,